Flag for Colombia Weather past 2 weeks in Manizales, Colombia

Now
81 °F

Passing clouds.


Feels Like: 82 °F
Forecast: N/A
Wind: 2 mph from North

Location: Pereira / Matecana

Current Time: Jul 24, 2014 at 6:54:33 PM

Latest Report: Jul 24, 2014 at 6:00 PM


Visibility: N/A

Pressure: 29.95 "Hg

Humidity: 54%

Dew point: 63 °F

Location of ManizalesLocation

Historic Weather in Manizales — Graph

°F

Manizales temperature yesterday

Maximum temperature yesterday: 84 °F (at 2:00 PM)
Minimum temperature yesterday: 66 °F (at 7:00 AM)
Average temperature yesterday: 75 °F

Past Weeks' High & Low Weather Summary

 TemperatureHumidityPressure
High88 °F (Jul 19, 4:00 PM)94% (Jul 23, 5:00 AM)30.17 "Hg (Jul 23, 5:00 AM)
Low64 °F (Jul 20, 7:00 AM)40% (Jul 16, 4:00 PM)29.93 "Hg (Jul 24, 4:00 PM)
Average75 °F69%30.06 "Hg
* Reported Jul 9 5:00 PM — Jul 24 5:00 PM, Manizales, Weather by CustomWeather, © 2014

Note: Actual official high and low records may vary slightly from our data, if they occured in-between our weather recording intervals... More about our weather records

Advertising

Manizales weather history for previous 24 hours

 ConditionsComfort  
Time TempWeatherWind HumidityBarometerVisibility
5:00 PM
Jul 24
82 °FPassing clouds.2 mph51%29.93 "HgN/A
4:00 PM84 °FPassing clouds.5 mph48%29.93 "HgN/A
3:00 PM84 °FScattered clouds.9 mph51%29.94 "HgN/A
2:00 PM84 °FPassing clouds.2 mph51%29.97 "HgN/A
1:00 PM82 °FScattered clouds.3 mph55%30.00 "HgN/A
12:00 PM81 °FScattered clouds.8 mph62%30.03 "HgN/A
11:00 AM81 °FScattered clouds.6 mph62%30.05 "HgN/A
10:00 AM77 °FPassing clouds.2 mph69%30.07 "HgN/A
9:00 AM73 °FScattered clouds.2 mph74%30.08 "HgN/A
8:00 AM70 °FScattered clouds.2 mph83%30.07 "HgN/A
7:00 AM66 °FScattered clouds.7 mph88%30.06 "HgN/A
6:00 AM66 °FScattered clouds.7 mph88%30.04 "HgN/A
5:00 AM66 °FPassing clouds.7 mph88%30.04 "HgN/A
12:00 AM68 °FPassing clouds.7 mph78%30.06 "HgN/A
11:00 PM
Jul 23
70 °FPassing clouds.6 mph83%30.07 "HgN/A
10:00 PM72 °FPassing clouds.2 mph78%30.06 "HgN/A
9:00 PM73 °FPassing clouds.No wind74%30.03 "HgN/A
8:00 PM75 °FPassing clouds.2 mph69%30.01 "HgN/A
7:00 PM77 °FPassing clouds.2 mph65%30.00 "HgN/A
6:00 PM81 °FScattered clouds.2 mph58%29.97 "HgN/A
Weather by CustomWeather, © 2014

See weather overviewHow to use our weather pages